This demonstration page uses our WeatherBlox Daily Observations layout. Learn more.

Hourly Observations for December 5, 2016

Temp ( °F °C ) Dew Point ( °F °C ) Humidity (%) Winds ( mph kmh ) Pressure ( in mb ) Visibility ( mi km ) Precip ( " mm )
12:54 am 00:54 Clear 31 -0.6 27 -2.8 85 85 Calm 29.88 1012 10 16.0934 0 0
1:54 am 01:54 Clear 29 -1.7 26 -3.3 89 89 S 7 11 29.88 1012 10 16.0934 0 0
2:54 am 02:54 Clear 31 -0.6 27 -2.8 85 85 S 10 17 29.85 1011 10 16.0934 0 0
3:54 am 03:54 Clear 34 1.1 30 -1.1 85 85 S 8 13 29.83 1010 10 16.0934 0 0
4:54 am 04:54 Clear 34 1.1 30 -1.1 85 85 S 13 20 29.81 1009 10 16.0934 0 0
5:54 am 05:54 Clear 36 2.2 29 -1.7 76 76 S 12 19 29.79 1009 10 16.0934 0 0
6:54 am 06:54 Clear 34 1.1 28 -2.2 79 79 S 12 19 29.78 1009 10 16.0934 0 0
7:54 am 07:54 Sunny 35 1.7 29 -1.7 78 78 S 12 19 29.77 1008 10 16.0934 0 0
8:54 am 08:54 Sunny 39 3.9 30 -1.1 70 70 S 10 17 29.76 1008 10 16.0934 0 0
9:54 am 09:54 Sunny 39 3.9 31 -0.6 73 73 S 16 26 29.73 1007 10 16.0934 0 0
10:54 am 10:54 Sunny 42 5.6 33 0.6 71 71 S 18 30 29.72 1007 10 16.0934 0 0
11:54 am 11:54 Sunny 44 6.7 34 1.1 68 68 S 18 30 29.69 1005 10 16.0934 0 0
12:54 pm 12:54 Sunny 49 9.4 36 2.2 61 61 S 18 30 29.67 1005 10 16.0934 0 0
1:54 pm 13:54 Sunny 51 10.6 36 2.2 56 56 S 21 33 29.66 1005 10 16.0934 0 0
2:54 pm 14:54 Sunny 51 10.6 36 2.2 56 56 S 21 33 29.64 1004 10 16.0934 0 0
3:54 pm 15:54 Sunny 52 11.1 35 1.7 53 53 S 17 28 29.63 1004 10 16.0934 0 0
4:54 pm 16:54 Sunny 49 9.4 34 1.1 56 56 SSW 8 13 29.67 1005 10 16.0934 0 0
5:54 pm 17:54 Mostly Cloudy 44 6.7 34 1.1 68 68 SSW 5 7 29.69 1006 10 16.0934 0 0
6:54 pm 18:54 Cloudy 46 7.8 34 1.1 63 63 SSE 3 6 29.72 1006 10 16.0934 0 0
7:54 pm 19:54 Cloudy 42 5.6 37 2.8 82 82 NNW 6 9 29.75 1008 10 16.0934 0 0
8:54 pm 20:54 Cloudy with Light Rain 39 3.9 34 1.1 82 82 N 22 35 29.81 1009 10 16.0934 0 0.0254
9:54 pm 21:54 Cloudy 36 2.2 28 -2.2 73 73 N 22 35 29.85 1011 10 16.0934 0 0.0254
10:54 pm 22:54 Cloudy 35 1.7 26 -3.3 70 70 NNW 20 31 29.88 1012 10 16.0934 0 0
11:54 pm 23:54 Cloudy 32 0 21 -6.1 64 64 NNW 22 35 29.92 1013 10 16.0934 0 0

Powered by AerisWeather